User: anonymous   Login
Location: Shades State Park
(39.9310°N, 87.0690°W)
Time: 17:18:18
(UTC-05:00)
Language:

H-2A R/B - Orbit

View from above orbital plane
View from above orbital plane
View from above satellite
View from above satellite

Ground track
Ground track

The orbit data is extracted from the following two-line orbital elements,

1 27601U 02056E   16345.14962140  .00000058  00000-0  36088-4 0  9997
2 27601  98.4015  53.2566 0073079 135.3068 245.8224 14.31752281730757
Epoch (UTC): 10 December 2016 03:35:27
Eccentricity: 0.0073079
inclination: 98.4015°
perigee height: 733 km
apogee height: 838 km
right ascension of ascending node: 53.2566°
argument of perigee: 135.3068°
revolutions per day: 14.31752281
mean anomaly at epoch: 245.8224°
orbit number at epoch: 73075

The dashed part of the orbit path shows where the satellite is in the earth's shadow,  

DLR